ERNST

Last updated on Mon Sep 16 2024 00:02:03 GMT+0000 (Coordinated Universal Time)

1 60528U 24149BN 24258.87931877 .00012874 00000+0 60819-3 0 9990 2 60528 97.4430 334.0398 0010019 55.2321 304.9855 15.19505400 4412
UTC large
Height (km)
Speed (km/s)
/
Latitude / Longitude
Inclination (degrees)
Orbital Period (minutes)
Azimuth
Elevation
Range (km)
Doppler Factor

Next 0 passes for location: London (51.5072 / 0.1276)

Sorry there are no passes over London.